Date,TemperatureHighF,TemperatureAvgF,TemperatureLowF,DewpointHighF,DewpointAvgF,DewpointLowF,HumidityHigh,HumidityAvg,HumidityLow,PressureMaxIn,PressureMinIn,WindSpeedMaxMPH,WindSpeedAvgMPH,GustSpeedMaxMPH,PrecipitationSumIn
2013-1-1,76.3,72.5,67.4,64.0,60.6,56.5,86,67,59,30.25,30.10,18,5,20,0.00
2013-1-2,78.3,71.6,64.0,68.5,65.6,62.0,95,82,67,30.14,30.04,12,3,14,0.00
2013-1-3,80.7,73.7,67.7,69.7,67.7,65.5,93,82,68,30.18,30.08,16,3,16,0.00
2013-1-4,82.6,72.8,66.2,72.0,68.9,65.0,97,87,69,30.27,30.15,11,3,14,0.00
2013-1-5,76.8,71.1,67.3,71.3,68.4,66.3,97,91,78,30.30,30.20,13,4,14,0.08
2013-1-6,79.7,76.5,70.0,72.0,70.9,69.0,96,82,75,30.24,30.11,14,5,17,0.00
2013-1-7,78.2,72.6,68.8,71.7,68.7,66.0,97,88,68,30.22,30.12,14,4,15,0.31
2013-1-8,80.6,77.3,75.1,73.0,71.9,70.0,89,83,76,30.25,30.11,17,5,23,0.01
2013-1-9,80.2,77.7,76.1,72.3,70.9,67.0,85,79,73,30.33,30.20,19,6,21,0.00
2013-1-10,78.9,76.7,75.2,69.7,66.5,62.5,81,71,60,30.35,30.23,17,6,20,0.00
2013-1-11,78.7,76.0,74.5,69.3,67.7,66.0,83,75,69,30.31,30.20,20,6,24,0.00
2013-1-12,79.7,76.0,74.1,69.3,67.0,63.0,82,73,65,30.24,30.14,17,5,20,0.00
2013-1-13,78.5,75.4,73.9,68.0,65.3,60.0,79,71,60,30.18,30.11,17,6,22,0.00
2013-1-14,78.3,75.1,73.3,66.3,63.8,60.5,75,68,61,30.22,30.16,15,5,18,0.00
2013-1-15,77.9,75.2,73.8,68.5,66.0,63.0,79,73,67,30.19,30.09,15,4,16,0.00
2013-1-16,79.5,75.7,70.3,70.0,67.6,61.5,91,76,63,30.16,30.06,15,5,15,0.15
2013-1-17,78.0,69.4,60.7,72.3,66.0,53.5,97,89,77,30.15,30.08,22,4,24,0.06
2013-1-18,71.1,63.0,54.0,61.0,53.2,47.0,80,71,58,30.29,30.15,22,8,25,0.00
2013-1-19,71.4,68.2,62.4,68.0,64.3,57.5,98,88,63,30.27,30.14,17,5,18,0.82
2013-1-20,81.8,70.6,64.0,70.5,66.4,63.5,100,88,65,30.20,30.06,15,4,21,0.24
2013-1-21,79.0,73.3,67.0,71.0,68.0,64.0,96,84,71,30.12,30.01,16,4,16,0.01
2013-1-22,75.5,69.0,63.4,65.0,59.7,53.5,95,74,56,30.26,30.06,26,8,28,0.00
2013-1-23,72.0,69.3,61.7,57.0,53.9,51.0,80,58,51,30.34,30.24,23,8,24,0.00
2013-1-24,73.5,65.8,58.7,56.0,53.8,50.0,87,67,49,30.34,30.24,15,5,17,0.00
2013-1-25,75.3,67.3,59.8,61.0,54.9,50.0,81,65,47,30.34,30.23,15,3,15,0.00
2013-1-26,76.2,68.3,59.4,63.0,58.6,51.0,94,73,52,30.31,30.21,15,5,16,0.00
2013-1-27,75.7,73.3,71.6,65.0,62.1,59.0,75,68,58,30.33,30.24,25,8,25,0.00
2013-1-28,77.7,74.7,72.7,66.7,64.0,61.5,77,69,61,30.37,30.27,21,6,23,0.00
2013-1-29,78.5,74.7,73.4,69.3,66.8,64.0,82,76,71,30.28,30.18,18,6,18,0.00
2013-1-30,77.3,74.5,72.6,69.0,66.3,63.5,85,76,69,30.18,30.02,22,7,22,0.00
2013-1-31,74.6,68.3,60.6,71.7,60.3,39.0,94,77,46,30.24,30.01,21,5,22,0.00
2013-2-1,71.8,63.8,54.0,56.5,48.3,40.0,68,57,47,30.32,30.21,23,8,24,0.00
2013-2-2,71.4,66.3,57.6,54.5,49.6,37.0,69,55,46,30.32,30.17,17,5,17,0.00
2013-2-3,73.9,64.9,56.3,55.0,50.1,44.0,90,61,36,30.22,30.11,16,4,17,0.00
2013-2-4,76.5,64.2,52.2,54.5,47.8,38.0,80,57,31,30.20,30.08,12,3,12,0.00
2013-2-5,75.8,68.2,56.7,63.5,58.5,53.0,91,72,53,30.14,30.06,14,3,15,0.00
2013-2-6,78.6,71.2,62.7,66.3,63.3,61.0,96,77,63,30.16,30.08,13,3,16,0.00
2013-2-7,78.1,74.1,71.2,66.7,64.4,62.0,82,72,65,30.14,30.00,14,5,15,0.00
2013-2-8,82.8,74.5,69.3,71.3,68.4,65.0,94,82,59,30.08,29.97,17,4,18,0.00
2013-2-9,76.7,71.1,64.4,68.0,62.5,57.0,94,75,66,30.22,30.07,22,7,23,0.00
2013-2-10,73.4,72.2,69.9,65.0,61.9,58.0,84,70,61,30.31,30.19,24,7,25,0.02
2013-2-11,76.5,73.4,71.3,66.3,63.9,61.0,78,72,66,30.28,30.16,20,6,20,0.00
2013-2-12,79.1,74.8,71.2,70.0,67.9,65.0,89,79,70,30.17,30.02,20,6,20,0.00
2013-2-13,78.8,75.7,72.7,72.7,71.2,69.3,92,86,79,30.07,29.96,23,6,25,0.00
2013-2-14,82.7,72.8,63.4,74.0,68.6,62.0,96,87,61,30.08,29.90,32,6,33,0.91
2013-2-15,72.9,67.6,63.6,68.0,65.9,62.5,98,94,82,30.07,30.00,16,4,17,1.79
2013-2-16,74.1,65.8,54.9,66.0,56.8,44.0,98,75,37,30.14,29.93,26,7,27,0.01
2013-2-17,58.9,52.1,45.5,46.0,29.4,18.0,72,43,23,30.36,30.13,24,7,28,0.00
2013-2-18,68.9,59.8,48.0,56.5,45.7,36.0,67,60,50,30.38,30.25,23,7,25,0.00
2013-2-19,75.3,71.4,68.4,66.7,61.5,54.5,89,71,60,30.26,30.14,21,6,23,0.00
2013-2-20,75.7,70.8,65.6,67.0,64.5,57.5,95,81,55,30.17,30.07,17,3,17,0.00
2013-2-21,79.3,74.8,72.1,67.5,66.1,63.5,84,74,65,30.15,30.05,15,4,15,0.00
2013-2-22,79.0,75.6,73.3,71.3,70.1,66.7,88,83,76,30.16,30.07,23,7,26,0.00
2013-2-23,79.3,76.2,73.5,72.7,71.1,68.5,92,84,78,30.11,29.98,21,7,21,0.00
2013-2-24,84.1,76.3,72.3,74.3,72.7,69.7,98,89,65,30.06,29.95,15,3,15,0.00
2013-2-25,80.7,76.1,70.6,74.0,72.3,68.5,95,88,79,29.98,29.88,17,4,19,0.00
2013-2-26,80.9,78.2,75.9,73.7,72.5,70.0,90,83,72,29.96,29.85,21,7,23,0.00
2013-2-27,78.2,71.4,65.4,73.7,67.0,62.0,96,86,61,30.03,29.91,15,3,17,0.42
2013-2-28,70.4,65.3,61.0,64.5,53.4,45.0,96,67,42,30.07,29.95,16,4,18,0.00
2013-3-1,65.4,62.5,58.7,57.0,51.2,47.0,85,67,58,30.05,29.96,15,5,18,0.00
2013-3-2,65.2,57.8,53.6,47.5,41.8,35.0,68,56,42,30.10,29.99,27,6,27,0.00
2013-3-3,61.1,54.8,50.4,45.0,41.6,38.0,78,62,46,30.20,30.02,22,6,24,0.00
2013-3-4,63.9,54.5,44.1,45.0,38.5,32.0,73,56,32,30.27,30.17,19,5,19,0.00
2013-3-5,73.2,63.1,51.6,57.0,52.3,42.0,89,69,56,30.24,30.15,15,4,16,0.00
2013-3-6,77.0,65.8,53.1,63.5,50.8,26.0,93,63,22,30.16,30.00,25,6,28,0.00
2013-3-7,67.8,58.7,48.2,54.5,43.2,35.0,85,58,40,30.24,30.12,17,5,21,0.00
2013-3-8,71.3,63.7,54.6,54.5,51.4,44.0,92,66,42,30.26,30.16,17,5,17,0.00
2013-3-9,72.8,65.2,55.8,57.5,53.3,49.0,86,66,54,30.25,30.16,21,6,22,0.00
2013-3-10,73.5,70.0,67.4,60.5,55.1,52.0,70,59,53,30.23,30.12,19,8,21,0.00
2013-3-11,74.7,71.8,70.1,62.5,60.1,57.0,73,67,57,30.17,30.01,19,7,20,0.00
2013-3-12,77.0,73.9,70.7,70.0,65.9,61.5,83,76,67,30.07,29.98,20,7,23,0.00
2013-3-13,72.1,66.1,57.9,65.5,56.5,47.5,90,73,47,30.18,30.04,25,7,27,0.00
2013-3-14,69.3,61.6,55.5,53.0,46.9,36.0,85,61,30,30.26,30.15,27,8,27,0.00
2013-3-15,70.2,63.1,54.7,53.5,48.5,41.0,77,60,48,30.31,30.21,17,6,17,0.00
2013-3-16,72.8,66.0,57.1,56.0,53.5,50.5,90,66,48,30.25,30.15,14,3,15,0.00
2013-3-17,73.8,69.1,60.3,61.5,57.8,54.0,84,68,57,30.21,30.09,17,4,17,0.00
2013-3-18,76.8,72.7,68.3,70.0,65.8,60.5,94,79,70,30.14,30.03,18,5,20,0.05
2013-3-19,80.4,73.0,69.5,70.5,67.9,62.0,97,85,57,30.08,29.89,23,3,25,0.05
2013-3-20,79.9,72.3,65.3,71.0,65.9,56.5,98,81,52,30.04,29.86,28,4,28,0.00
2013-3-21,71.9,66.7,62.4,61.5,55.5,47.0,93,69,42,30.01,29.90,20,6,21,0.00
2013-3-22,74.0,69.5,60.0,71.0,60.5,53.0,91,74,60,30.07,29.96,17,4,19,0.00
2013-3-23,80.2,76.1,72.5,74.3,72.8,71.0,97,89,79,30.05,29.87,23,6,23,0.02
2013-3-24,89.0,80.1,74.8,74.3,71.8,68.5,98,78,51,29.95,29.74,28,7,30,0.01
2013-3-25,78.3,74.5,66.4,72.7,60.0,41.0,93,64,35,30.06,29.80,18,5,19,0.02
2013-3-26,66.3,60.9,52.4,44.0,36.5,31.0,58,41,28,30.27,30.05,26,8,27,0.00
2013-3-27,66.0,57.0,47.2,47.0,41.6,35.0,69,56,46,30.31,30.22,18,6,19,0.00
2013-3-28,68.8,61.9,53.3,49.0,43.9,35.0,69,53,31,30.32,30.22,16,6,17,0.00
2013-3-29,72.4,65.8,58.8,53.5,49.0,40.0,62,55,46,30.34,30.26,19,6,20,0.00
2013-3-30,74.2,69.4,66.8,54.5,51.6,47.0,62,53,42,30.32,30.22,14,5,16,0.00
2013-3-31,77.3,72.5,68.5,67.5,61.9,53.5,83,69,58,30.26,30.11,18,6,19,0.00
2013-4-1,82.3,75.2,72.6,71.3,67.7,62.5,88,77,58,30.12,30.01,20,6,20,0.00
2013-4-2,79.3,72.8,66.2,68.0,65.2,62.5,97,78,58,30.15,30.06,14,6,16,0.00
2013-4-3,80.3,76.0,73.6,70.5,68.4,66.3,85,77,69,30.13,30.05,19,5,19,0.00
2013-4-4,80.3,75.4,68.4,73.3,70.5,66.0,96,85,78,30.11,29.97,22,6,24,0.60
2013-4-5,74.4,68.8,65.9,71.7,66.2,63.0,97,92,81,30.05,29.88,24,4,28,1.52
2013-4-6,76.3,69.0,60.3,66.3,61.6,58.0,95,78,63,30.14,29.98,22,8,24,0.00
2013-4-7,74.2,72.8,68.7,66.3,63.5,62.0,88,73,65,30.21,30.07,21,8,23,0.17
2013-4-8,79.7,75.0,72.2,65.5,61.3,59.0,74,63,54,30.20,30.10,16,5,16,0.00
2013-4-9,80.5,75.4,73.7,69.0,66.4,64.0,82,73,66,30.21,30.10,15,5,17,0.00
2013-4-10,81.7,77.2,74.4,72.7,70.3,66.3,85,79,72,30.17,30.06,17,5,19,0.00
2013-4-11,80.8,77.6,74.7,74.0,71.8,70.0,89,82,75,30.09,29.96,25,9,25,0.06
2013-4-12,82.3,79.1,77.1,76.3,74.9,73.3,93,87,81,30.02,29.93,22,7,23,0.00
2013-4-13,83.2,78.2,74.3,76.0,73.6,69.7,93,86,68,30.05,29.94,18,5,22,0.53
2013-4-14,83.0,79.5,76.6,75.5,74.5,73.7,95,85,75,30.03,29.96,15,5,18,0.00
2013-4-15,83.9,78.1,71.9,77.7,74.3,69.7,94,88,78,30.13,29.99,33,4,36,0.25
2013-4-16,82.7,78.9,73.5,76.3,73.4,70.0,93,83,73,30.18,30.08,19,6,19,0.00
2013-4-17,81.4,78.4,76.6,73.0,70.4,68.0,85,77,68,30.17,30.08,19,9,20,0.00
2013-4-18,83.3,79.5,76.8,73.3,71.1,69.0,83,75,67,30.13,30.03,17,5,19,0.00
2013-4-19,83.5,80.4,77.9,75.0,72.9,70.5,87,78,69,30.12,30.03,20,6,21,0.00
2013-4-20,85.1,78.6,70.6,76.3,73.4,68.5,94,84,68,30.14,30.00,27,5,27,0.76
2013-4-21,81.4,76.5,72.8,74.0,72.4,67.5,96,87,69,30.16,30.05,17,4,17,0.08
2013-4-22,81.7,74.5,69.7,72.7,70.2,67.5,96,87,68,30.12,29.98,16,3,19,0.41
2013-4-23,81.0,75.0,68.6,70.5,66.6,62.5,96,76,61,30.15,30.01,24,8,25,0.01
2013-4-24,79.6,76.7,74.1,66.0,63.7,61.0,70,64,59,30.20,30.09,21,8,23,0.00
2013-4-25,79.0,76.1,74.2,63.5,61.6,59.5,67,61,52,30.26,30.14,17,7,18,0.00
2013-4-26,78.3,75.6,72.6,66.0,63.2,60.5,72,65,58,30.28,30.17,19,8,20,0.00
2013-4-27,78.6,75.9,71.7,68.0,63.9,60.0,83,67,57,30.26,30.14,24,10,26,0.02
2013-4-28,79.1,76.6,74.5,66.7,63.8,61.5,75,65,58,30.17,30.06,23,7,24,0.00
2013-4-29,80.3,77.1,75.5,72.0,68.3,63.5,83,74,65,30.10,30.00,17,6,19,0.00
2013-4-30,82.6,76.7,71.0,71.7,70.3,68.5,94,81,69,30.07,29.99,18,5,18,0.39
2013-5-1,84.0,77.2,71.3,72.7,71.4,69.0,93,82,68,30.07,29.98,18,3,18,0.28
2013-5-2,79.8,74.7,67.5,73.0,70.4,66.7,97,86,77,30.01,29.82,36,8,38,4.31
2013-5-3,84.7,75.2,68.2,72.0,69.3,66.0,98,83,55,29.88,29.75,18,4,20,0.03
2013-5-4,86.8,76.8,69.0,69.7,66.7,62.5,96,73,47,29.87,29.75,18,5,19,0.00
2013-5-5,80.5,73.6,68.9,66.7,61.6,53.5,92,68,43,30.00,29.83,19,6,19,0.00
2013-5-6,80.8,71.6,61.6,67.5,59.1,54.5,88,66,42,30.08,29.98,16,4,17,0.11
2013-5-7,80.7,72.5,64.1,67.0,61.5,56.0,89,69,47,30.14,30.04,16,4,17,0.01
2013-5-8,80.6,73.6,63.5,68.5,62.1,55.0,91,68,45,30.20,30.11,14,3,14,0.00
2013-5-9,86.0,76.9,67.5,73.3,67.3,58.0,84,73,53,30.21,30.13,13,3,14,0.00
2013-5-10,86.8,79.4,73.6,74.3,72.2,69.0,90,79,62,30.20,30.09,18,4,19,0.12
2013-5-11,83.6,79.1,74.2,75.0,73.4,70.0,93,83,70,30.14,30.05,18,5,20,0.10
2013-5-12,83.8,78.3,70.7,74.7,72.7,66.3,96,83,71,30.13,30.02,18,5,20,0.28
2013-5-13,89.0,77.8,71.9,74.3,70.6,54.5,97,80,49,30.16,30.01,19,5,21,0.40
2013-5-14,80.0,76.7,73.0,67.0,59.7,53.5,71,56,44,30.23,30.03,23,11,23,0.00
2013-5-15,80.0,76.1,73.0,63.5,58.7,53.5,64,55,42,30.18,30.07,19,9,21,0.00
2013-5-16,83.0,76.8,72.0,65.0,59.8,54.5,67,56,42,30.12,30.00,17,7,19,0.00
2013-5-17,85.0,79.0,73.0,71.3,68.3,61.5,89,70,54,30.09,29.98,15,5,16,0.09
2013-5-18,83.0,78.7,76.0,72.7,70.3,67.5,88,75,66,30.12,30.02,17,6,18,0.00
2013-5-19,85.0,79.6,76.0,71.3,68.3,66.0,79,69,55,30.12,29.99,15,6,16,0.00
2013-5-20,83.0,76.4,69.0,74.7,71.5,67.0,99,85,69,30.07,29.94,23,6,28,1.77
2013-5-21,83.0,75.6,70.0,79.0,70.5,67.0,100,84,68,30.04,29.92,23,6,23,1.50
2013-5-22,83.0,76.3,70.0,74.3,71.4,65.5,99,85,59,29.97,29.87,23,6,25,1.51
2013-5-23,92.0,80.6,72.0,76.8,71.8,63.0,96,76,41,30.02,29.89,16,5,19,0.00
2013-5-24,90.0,80.3,73.0,76.8,72.7,67.5,96,79,50,30.07,29.93,16,6,17,0.00
2013-5-25,83.3,79.8,75.0,73.7,67.8,61.0,87,67,56,30.22,30.02,24,9,24,0.25
2013-5-26,82.0,78.7,73.0,68.0,65.7,63.5,76,64,55,30.24,30.08,23,10,23,0.00
2013-5-27,83.0,79.2,76.0,72.7,69.1,63.5,83,71,64,30.15,30.06,25,12,26,0.00
2013-5-28,83.0,77.7,74.0,74.0,71.5,69.0,95,81,66,30.10,30.01,26,9,28,0.36
2013-5-29,80.0,75.6,71.0,73.7,71.1,65.0,97,86,72,30.08,29.99,29,8,34,1.21
2013-5-30,83.0,78.1,75.0,73.0,70.8,67.5,91,78,68,30.07,29.98,31,9,32,0.02
2013-5-31,84.0,78.3,74.0,76.8,72.8,70.0,97,84,67,30.07,29.98,25,8,26,0.33
2013-6-1,83.0,76.8,73.0,77.3,73.8,71.3,98,91,77,30.03,29.94,18,5,22,0.31
2013-6-2,90.0,78.3,73.0,77.0,72.8,70.5,100,84,56,30.03,29.92,16,3,16,0.01
2013-6-3,84.0,78.7,73.0,75.0,72.6,70.0,96,82,68,30.02,29.90,19,4,19,0.00
2013-6-4,85.0,77.8,72.0,76.5,73.1,69.3,100,86,62,30.06,29.94,15,4,15,0.22
2013-6-5,83.0,80.2,79.0,76.3,74.4,72.3,91,83,76,30.02,29.90,18,6,19,0.00
2013-6-6,86.0,79.0,73.0,78.0,75.1,70.5,96,88,72,29.92,29.78,28,9,34,0.81
2013-6-7,89.0,76.7,71.0,77.3,73.2,70.5,100,90,59,30.00,29.83,26,6,26,2.77
2013-6-8,86.0,80.1,73.0,79.0,75.3,71.0,96,86,74,30.16,29.94,23,4,24,6.76
2013-6-9,87.0,82.4,78.0,75.5,73.8,70.0,85,76,63,30.18,30.05,20,6,20,0.00
2013-6-10,89.0,82.3,79.0,76.3,74.4,72.3,87,78,62,30.12,30.02,16,6,17,0.00
2013-6-11,87.0,81.1,78.0,76.8,74.8,69.7,92,81,63,30.10,30.01,18,6,18,0.00
2013-6-12,86.0,79.4,75.0,81.0,75.3,72.7,100,88,72,30.10,30.00,13,3,13,0.49
2013-6-13,89.0,80.3,74.0,78.3,73.0,64.5,99,80,55,30.10,29.95,14,3,16,0.00
2013-6-14,90.0,79.2,74.0,76.0,72.4,-6.0,97,81,47,29.99,29.87,20,4,23,1.04
2013-6-15,88.0,80.8,74.0,77.0,73.3,70.5,100,79,57,30.06,29.91,13,4,14,0.00
2013-6-16,89.0,82.4,75.0,76.8,73.7,71.3,96,76,60,30.11,30.01,16,5,16,0.00
2013-6-17,88.0,83.3,80.0,75.5,73.5,71.0,82,73,62,30.11,30.01,15,6,16,0.00
2013-6-18,88.0,83.0,80.0,75.5,74.1,72.0,83,75,63,30.11,30.01,16,6,16,0.00
2013-6-19,87.0,82.7,79.0,76.3,74.3,72.3,88,77,64,30.08,30.00,16,6,17,0.00
2013-6-20,88.0,80.0,71.0,76.5,72.6,67.5,97,79,64,30.12,29.99,22,5,23,1.08
2013-6-21,89.0,83.5,80.0,75.5,72.2,66.7,83,69,54,30.16,30.03,15,6,17,0.00
2013-6-22,89.0,83.1,79.0,75.5,72.2,69.0,83,70,56,30.14,30.03,19,7,19,0.00
2013-6-23,88.0,82.3,76.0,75.0,72.0,66.0,87,71,56,30.15,30.04,21,7,21,0.02
2013-6-24,87.0,82.6,78.0,74.7,72.0,69.0,88,71,58,30.20,30.08,20,7,20,0.07
2013-6-25,88.0,82.5,79.0,76.3,73.3,70.5,85,74,60,30.15,30.04,24,7,24,0.00
2013-6-26,87.0,82.0,76.0,75.0,73.1,70.0,96,75,61,30.12,30.01,18,6,20,0.37
2013-6-27,88.0,82.2,80.0,74.7,73.1,70.5,83,75,61,30.08,29.97,13,4,14,0.00
2013-6-28,88.0,82.5,77.0,74.7,73.0,69.7,88,74,59,30.02,29.89,16,5,19,0.00
2013-6-29,86.0,81.1,76.0,76.8,73.6,69.7,95,79,61,29.93,29.85,19,5,22,0.10
2013-6-30,85.0,80.6,74.0,77.3,73.6,69.3,96,80,65,29.94,29.85,30,8,30,0.77
2013-7-1,86.0,81.5,78.0,76.8,74.6,71.7,88,80,69,30.03,29.92,20,7,22,0.00
2013-7-2,86.0,81.3,77.0,77.7,75.0,70.0,92,81,70,30.11,29.98,19,6,19,0.00
2013-7-3,85.0,80.9,77.0,76.5,74.0,67.5,90,80,69,30.15,30.04,30,8,30,0.17
2013-7-4,86.0,82.0,73.0,76.3,73.0,68.5,97,75,65,30.17,30.06,22,8,26,0.52
2013-7-5,86.0,81.3,75.0,76.5,73.4,69.3,97,77,64,30.15,30.06,23,7,26,0.04
2013-7-6,87.0,82.3,79.0,76.3,72.8,69.7,90,74,59,30.14,30.02,22,7,26,0.06
2013-7-7,86.0,82.3,80.0,80.0,72.9,70.0,90,74,65,30.12,30.04,23,8,25,0.08
2013-7-8,88.0,82.9,79.0,73.3,71.3,69.3,79,68,56,30.19,30.07,15,6,17,0.00
2013-7-9,86.0,80.5,76.0,74.0,71.3,68.0,89,74,59,30.15,30.06,23,6,25,0.09
2013-7-10,86.0,78.6,72.0,77.0,72.5,69.7,97,82,67,30.09,30.01,18,4,18,0.34
2013-7-11,87.0,82.1,79.0,75.5,73.3,70.5,87,75,64,30.05,29.96,16,5,16,0.00
2013-7-12,90.0,81.2,76.0,76.0,72.2,66.0,92,75,57,29.99,29.91,17,4,19,0.00
2013-7-13,85.0,74.5,71.0,76.8,72.3,69.3,100,93,67,30.01,29.90,18,4,23,5.30
2013-7-14,87.0,78.4,71.0,74.0,72.0,69.3,100,82,60,30.10,29.98,19,6,19,0.33
2013-7-15,87.0,80.6,74.0,76.0,71.4,66.0,94,75,56,30.11,30.01,20,6,20,0.06
2013-7-16,82.0,77.8,72.0,74.0,70.6,66.0,98,80,62,30.12,30.03,9,4,9,0.86
2013-7-17,79.0,75.4,71.0,76.0,72.1,69.0,100,91,76,30.13,30.03,9,4,9,4.25
2013-7-18,84.0,75.3,71.0,78.0,72.8,69.0,100,93,74,30.12,30.03,9,4,9,1.29
2013-7-19,86.0,81.2,76.0,76.0,74.5,72.0,92,82,69,30.16,30.06,9,5,9,0.00
2013-7-20,85.0,81.0,76.0,77.0,74.6,68.0,90,82,66,30.14,30.04,9,5,9,0.00
2013-7-21,87.0,81.6,78.0,77.0,75.1,71.0,90,82,70,30.16,30.06,9,4,9,0.00
2013-7-22,86.0,82.5,80.0,76.0,73.6,72.0,88,76,65,30.18,30.08,9,6,9,0.00
2013-7-23,87.0,81.9,76.0,76.0,73.4,69.0,94,77,58,30.12,29.98,9,4,9,0.00
2013-7-24,92.0,82.7,77.0,78.0,73.0,68.0,93,74,49,30.04,29.93,9,4,9,0.00
2013-7-25,93.0,83.8,74.0,75.0,70.8,66.0,94,68,44,30.06,29.90,9,4,9,0.00
2013-7-26,93.0,81.2,75.0,76.0,73.5,69.0,96,80,46,30.05,29.95,9,4,9,0.42
2013-7-27,85.0,78.1,74.0,79.0,74.6,72.0,99,90,77,30.01,29.94,9,3,9,0.48
2013-7-28,89.0,81.3,75.0,77.0,73.8,72.0,97,80,61,30.08,29.94,9,4,9,0.03
2013-7-29,90.0,83.5,78.0,77.0,74.7,72.0,93,76,59,30.16,30.02,9,4,9,0.00
2013-7-30,89.0,83.5,78.0,78.0,75.3,72.0,92,78,64,30.20,30.09,9,4,9,0.22
2013-7-31,89.0,84.1,79.0,77.0,73.5,70.0,92,72,59,30.15,30.03,9,5,9,0.10
2013-8-1,88.0,83.2,79.0,74.0,72.0,70.0,81,70,59,30.06,29.96,20,7,20,0.00
2013-8-2,91.0,81.1,75.4,77.0,73.1,68.0,93,78,51,30.08,29.91,18,4,18,27.62
2013-8-3,85.9,78.5,73.3,79.0,74.6,71.0,95,89,73,30.15,30.04,17,2,20,0.45
2013-8-4,90.4,81.9,75.6,77.0,75.2,71.0,95,82,62,30.14,30.00,22,2,23,0.43
2013-8-5,90.6,81.3,77.3,79.0,74.9,71.0,95,82,62,30.07,29.96,15,2,16,0.01
2013-8-6,88.2,82.1,76.7,78.0,75.0,71.0,95,81,68,30.01,29.91,13,3,14,0.00
2013-8-7,87.6,83.5,79.2,78.0,75.5,72.0,87,78,69,30.01,29.92,16,4,17,0.00
2013-8-8,88.8,84.6,82.0,76.0,74.7,70.0,82,73,60,30.04,29.94,17,6,18,0.00
2013-8-9,86.5,82.3,78.6,76.0,73.4,70.0,85,75,67,30.09,29.98,22,5,25,0.11
2013-8-10,88.6,84.4,81.7,77.0,75.3,74.0,82,75,65,30.15,30.06,19,6,19,0.00
2013-8-11,88.1,84.5,82.3,77.0,75.6,74.0,82,75,69,30.16,30.09,16,6,18,0.00
2013-8-12,87.5,84.1,81.1,76.0,73.9,71.0,84,73,62,30.14,30.03,18,7,18,0.01
2013-8-13,88.2,84.4,81.1,77.0,74.9,72.0,86,74,63,30.07,29.98,13,4,13,0.00
2013-8-14,89.4,84.7,81.1,76.0,74.6,73.0,82,73,64,30.06,29.96,20,4,20,0.00
2013-8-15,85.3,81.3,74.8,77.0,75.5,72.0,95,83,74,30.09,29.99,19,4,21,1.28
2013-8-16,88.5,84.0,79.5,79.0,77.0,76.0,94,81,71,30.09,30.01,12,3,12,0.00
2013-8-17,89.4,84.9,82.5,79.0,76.7,75.0,86,78,69,30.11,30.02,15,4,16,0.10
2013-8-18,89.0,84.5,79.1,78.0,76.1,73.0,87,77,68,30.11,30.01,19,5,20,0.30
2013-8-19,88.8,84.6,79.0,78.0,76.1,73.0,92,77,66,30.11,29.99,16,4,16,0.00
2013-8-20,88.0,84.3,81.1,77.0,75.1,73.0,84,75,66,30.09,30.01,15,6,16,0.00
2013-8-21,87.6,84.0,81.4,78.0,76.5,74.0,86,79,70,30.11,30.02,18,6,19,0.09
2013-8-22,89.5,84.8,79.4,78.0,76.3,71.0,88,77,68,30.10,29.98,17,5,20,0.01
2013-8-23,90.8,84.5,82.3,77.0,75.5,73.0,83,75,62,30.05,29.96,20,4,23,0.00
2013-8-24,90.1,84.8,80.5,77.0,75.4,74.0,84,74,64,30.14,30.00,14,4,14,0.00
2013-8-25,84.5,81.8,75.4,76.0,74.3,71.0,92,79,69,30.19,30.05,16,5,16,0.03
2013-8-26,86.3,82.1,78.9,76.0,73.3,71.0,84,76,66,30.15,30.05,22,4,29,0.00
2013-8-27,85.8,80.2,76.2,74.0,72.7,70.0,91,79,64,30.08,30.00,13,3,14,0.01
2013-8-28,88.7,81.7,74.2,77.0,73.6,70.0,94,78,58,30.09,29.98,16,3,17,1.41
2013-8-29,88.1,82.7,75.7,77.0,74.9,72.0,93,79,67,30.06,29.96,14,4,14,0.00
2013-8-30,91.5,83.0,77.1,77.0,74.2,71.0,93,76,54,30.04,29.93,15,3,16,0.00
2013-8-31,88.8,80.6,75.4,76.0,74.0,69.0,93,82,68,30.02,29.95,12,2,13,0.00
2013-9-1,88.3,82.7,76.6,77.0,75.4,72.0,93,80,69,30.04,29.96,12,2,13,0.00
2013-9-2,90.7,80.0,74.1,78.0,75.3,71.0,96,87,66,30.08,29.97,16,2,22,0.51
2013-9-3,88.5,81.2,74.6,78.0,75.2,73.0,95,84,71,30.06,29.97,13,3,13,0.00
2013-9-4,87.0,84.0,82.6,77.0,76.3,74.0,83,79,71,30.10,29.98,17,4,18,0.00
2013-9-5,88.6,84.2,78.6,78.0,76.2,74.0,90,78,68,30.11,30.02,19,5,20,0.19
2013-9-6,89.3,84.8,82.0,77.0,75.9,74.0,86,76,66,30.07,29.96,20,5,20,0.00
2013-9-7,87.0,81.4,76.6,76.0,74.1,71.0,86,80,68,30.02,29.93,21,4,21,0.00
2013-9-8,89.2,80.9,74.9,76.0,73.7,71.0,95,81,62,29.99,29.89,13,3,14,0.12
2013-9-9,86.8,82.7,77.4,76.0,74.1,72.0,91,77,65,30.03,29.93,15,5,16,0.00
2013-9-10,86.8,82.6,76.4,76.0,74.7,71.0,89,78,66,30.08,29.98,26,7,26,0.07
2013-9-11,87.8,82.1,78.1,76.0,74.6,72.0,88,79,66,30.09,29.99,22,5,23,0.06
2013-9-12,85.7,81.1,75.2,77.0,75.2,72.0,92,83,72,30.07,29.92,13,2,13,0.66
2013-9-13,91.9,83.1,75.4,77.0,73.9,71.0,96,76,59,29.94,29.84,11,3,11,0.00
2013-9-14,93.3,83.6,77.1,77.0,74.5,72.0,93,76,58,30.01,29.86,17,3,17,0.00
2013-9-15,84.8,81.8,77.9,78.0,76.0,73.0,94,84,71,30.08,29.95,27,5,27,0.23
2013-9-16,84.5,81.9,77.6,78.0,75.0,71.0,89,81,69,30.08,29.99,24,7,24,0.09
2013-9-17,84.5,80.5,73.5,77.0,75.0,71.0,94,84,75,30.06,29.93,21,7,23,0.28
2013-9-18,84.5,80.7,74.5,76.0,74.8,72.0,95,83,74,30.05,29.94,17,4,18,0.54
2013-9-19,86.8,81.2,75.3,76.0,74.2,71.0,94,81,68,30.04,29.96,23,7,24,0.06
2013-9-20,86.3,82.4,76.2,74.0,70.6,67.0,92,69,57,30.03,29.92,18,8,19,0.28
2013-9-21,86.5,82.4,80.1,74.0,72.5,71.0,80,73,65,29.95,29.81,14,5,15,0.00
2013-9-22,86.9,82.6,77.5,78.0,75.4,73.0,92,80,68,29.91,29.80,18,4,18,0.00
2013-9-23,87.0,80.9,75.4,79.0,76.2,73.0,96,87,71,30.02,29.90,15,2,16,1.08
2013-9-24,89.6,82.5,77.5,80.0,75.9,70.0,95,82,65,30.01,29.90,23,4,23,0.00
2013-9-25,90.8,80.4,75.7,78.0,74.2,69.0,93,83,63,29.96,29.85,21,2,21,0.44
2013-9-26,90.3,81.3,76.4,80.0,75.8,73.0,95,85,61,29.91,29.83,27,3,29,0.34
2013-9-27,88.8,81.3,74.9,76.0,73.0,66.0,97,78,50,29.96,29.86,17,5,17,0.00
2013-9-28,86.2,80.0,75.2,76.0,72.4,71.0,93,79,63,30.01,29.91,23,6,26,0.36
2013-9-29,85.4,81.3,74.4,74.0,70.3,67.0,93,70,56,30.01,29.91,15,6,18,0.06
2013-9-30,88.2,82.5,79.8,72.0,70.7,68.0,76,68,57,30.05,29.93,14,4,15,0.00
2013-10-1,85.8,82.8,81.0,73.0,72.2,69.0,78,71,64,30.06,29.99,22,7,22,0.00
2013-10-2,82.3,80.8,75.6,76.0,73.9,71.0,95,81,71,30.09,29.99,20,9,22,0.40
2013-10-3,84.2,81.2,76.3,76.0,73.5,72.0,94,79,72,30.09,29.98,18,6,18,0.48
2013-10-4,85.3,82.1,80.5,74.0,71.1,69.0,79,70,62,30.10,30.02,14,6,14,0.00
2013-10-5,85.7,81.7,74.7,74.0,71.4,69.0,86,72,59,30.07,29.97,16,6,16,0.00
2013-10-6,90.5,83.2,77.6,76.0,71.9,69.0,86,70,59,30.01,29.91,11,3,12,0.00
2013-10-7,89.5,79.8,72.6,76.0,72.3,69.0,95,79,52,29.95,29.85,18,3,21,0.60
2013-10-8,88.1,81.3,76.1,78.0,74.2,70.0,95,81,62,29.98,29.89,13,4,14,0.03
2013-10-9,85.1,78.3,72.1,75.0,72.1,69.0,95,82,70,30.03,29.95,15,4,17,0.01
2013-10-10,85.8,79.8,72.6,74.0,71.6,69.0,96,78,62,30.05,29.97,19,6,19,0.06
2013-10-11,84.5,80.8,78.0,70.0,68.2,66.0,73,66,59,30.06,29.97,17,7,18,0.00
2013-10-12,85.4,80.1,71.8,70.0,67.2,65.0,85,66,51,30.07,29.98,14,4,14,0.00
2013-10-13,85.2,80.2,73.9,71.0,66.6,62.0,87,64,50,30.09,29.99,19,5,19,0.00
2013-10-14,84.5,79.6,71.7,69.0,67.2,66.0,88,67,58,30.06,29.94,17,6,17,0.00
2013-10-15,83.8,79.1,71.8,72.0,69.5,66.0,92,73,64,30.00,29.90,16,6,16,0.00
2013-10-16,83.5,79.4,74.7,72.0,69.4,67.0,86,72,62,29.99,29.92,15,6,15,0.00
2013-10-17,84.3,80.3,74.1,72.0,70.7,68.0,87,73,62,30.01,29.93,12,4,14,0.00
2013-10-18,89.3,82.1,75.9,73.0,71.3,69.0,85,71,60,30.03,29.94,13,3,13,0.00
2013-10-19,86.2,82.2,79.6,75.0,72.7,71.0,81,74,66,30.01,29.92,14,4,14,0.00
2013-10-20,86.5,80.9,75.3,77.0,74.5,73.0,96,82,73,30.01,29.91,18,3,18,1.23
2013-10-21,86.2,82.7,78.9,77.0,75.4,74.0,88,80,71,30.05,29.95,14,4,15,0.00
2013-10-22,86.8,82.2,77.9,78.0,75.4,73.0,91,82,68,30.01,29.88,16,4,16,0.00
2013-10-23,86.0,80.6,77.0,76.0,72.9,69.0,94,79,62,30.00,29.86,19,4,22,0.04
2013-10-24,81.1,77.5,74.0,69.0,65.8,63.0,77,68,60,30.13,29.97,22,7,22,0.00
2013-10-25,82.0,77.7,71.5,68.0,64.1,62.0,79,64,54,30.19,30.09,26,9,26,0.00
2013-10-26,81.3,78.2,76.5,64.0,62.8,61.0,65,60,53,30.19,30.09,25,9,25,0.00
2013-10-27,80.8,75.5,68.3,65.0,62.5,60.0,78,65,53,30.14,30.06,19,6,19,0.00
2013-10-28,81.7,78.6,75.9,66.0,64.2,60.0,67,62,49,30.19,30.09,25,8,29,0.00
2013-10-29,82.4,79.4,77.0,69.0,66.9,65.0,71,66,60,30.21,30.12,25,10,25,0.00
2013-10-30,81.3,79.2,77.5,69.0,66.7,65.0,74,66,59,30.22,30.12,25,11,25,0.00
2013-10-31,84.3,80.2,76.8,72.0,69.5,65.0,83,71,61,30.16,30.03,24,5,25,0.04
2013-11-1,85.0,80.9,78.7,74.0,72.3,71.0,81,76,69,30.06,29.93,20,5,20,0.00
2013-11-2,88.9,79.7,72.7,74.0,69.4,61.0,96,74,43,29.99,29.85,15,3,15,0.00
2013-11-3,81.4,75.2,68.9,69.0,63.0,60.0,83,67,54,30.06,29.93,27,9,29,0.00
2013-11-4,80.2,77.4,75.5,69.0,64.4,57.0,80,65,46,30.11,30.02,33,16,35,0.05
2013-11-5,80.3,78.2,73.7,72.0,68.7,66.0,89,74,65,30.13,30.03,32,15,34,0.14
2013-11-6,81.7,78.9,77.5,71.0,69.7,68.0,78,74,66,30.11,30.02,32,11,32,0.00
2013-11-7,83.9,77.2,70.6,71.0,69.4,67.0,92,78,62,30.06,29.96,15,5,15,0.00
2013-11-8,82.9,76.0,70.8,73.0,70.6,68.0,97,85,63,30.08,29.98,32,8,33,1.44
2013-11-9,79.8,77.2,74.4,73.0,72.0,71.0,95,85,77,30.16,30.03,30,16,32,0.28
2013-11-10,82.8,79.2,77.9,72.0,70.3,68.0,83,75,65,30.16,30.07,25,10,28,0.00
2013-11-11,81.5,79.0,77.6,71.0,68.7,66.0,78,72,66,30.16,30.08,21,10,21,0.00
2013-11-12,83.3,78.9,74.8,70.0,68.2,66.0,82,71,62,30.12,30.01,14,5,15,0.00
2013-11-13,78.5,72.8,68.7,68.0,63.9,59.0,92,75,61,30.25,30.03,39,12,39,1.01
2013-11-14,75.8,73.1,70.9,64.0,59.4,56.0,70,63,57,30.28,30.16,31,14,33,0.00
2013-11-15,79.9,77.1,72.8,71.0,66.1,61.0,89,70,60,30.19,30.06,24,8,26,0.06
2013-11-16,80.1,78.2,72.6,72.0,68.3,60.0,88,72,57,30.16,30.06,22,6,23,0.10
2013-11-17,81.7,79.2,77.7,72.0,70.1,68.0,82,74,68,30.13,30.04,20,5,20,0.00
2013-11-18,85.4,79.2,75.3,73.0,70.5,69.0,85,75,62,30.08,29.96,11,3,11,0.00
2013-11-19,81.7,76.0,72.0,73.0,70.9,69.0,93,85,74,30.00,29.90,17,3,17,0.00
2013-11-20,83.3,76.5,71.2,74.0,71.5,70.0,97,86,72,30.11,29.96,16,2,16,0.21
2013-11-21,83.1,76.1,71.7,77.0,72.0,70.0,98,88,68,30.19,30.09,33,6,33,1.74
2013-11-22,80.6,77.7,73.5,73.0,71.2,70.0,95,81,72,30.19,30.10,30,12,30,0.35
2013-11-23,80.5,78.0,76.4,72.0,70.8,69.0,85,79,72,30.12,30.02,22,8,22,0.00
2013-11-24,81.2,75.2,69.7,70.0,67.7,65.0,94,79,62,30.19,30.03,33,9,34,0.36
2013-11-25,75.0,73.7,72.2,70.0,65.7,61.0,89,76,68,30.24,30.09,35,16,35,0.08
2013-11-26,81.4,77.9,73.0,76.0,72.6,69.0,90,85,79,30.10,29.88,31,8,31,0.04
2013-11-27,79.0,71.6,60.5,76.0,64.4,53.0,98,80,53,30.17,29.85,22,6,26,1.60
2013-11-28,72.6,63.4,49.1,62.0,53.7,47.0,91,72,55,30.29,30.16,25,8,25,0.00
2013-11-29,76.2,72.5,63.4,65.0,60.0,54.0,84,65,55,30.32,30.22,28,10,28,0.00
2013-11-30,77.9,72.0,62.6,69.0,63.7,60.0,94,76,66,30.26,30.14,33,9,33,0.09
2013-12-1,76.3,69.2,64.4,71.0,65.9,61.0,98,91,69,30.15,30.00,15,3,16,0.92
2013-12-2,76.0,67.6,62.9,67.0,63.3,57.0,99,88,56,30.00,29.87,16,4,17,0.00
2013-12-3,82.3,71.1,61.8,66.0,63.2,59.0,96,78,49,30.07,29.96,9,1,9,0.00
2013-12-4,80.4,74.7,67.5,69.0,66.1,64.0,94,76,63,30.15,30.04,14,3,14,0.00
2013-12-5,80.4,77.6,75.7,71.0,69.1,66.0,81,76,72,30.22,30.13,18,5,18,0.00
2013-12-6,81.2,78.0,76.1,71.0,69.2,67.0,82,75,68,30.24,30.13,23,6,23,0.00
2013-12-7,83.0,78.3,73.2,71.0,69.0,67.0,90,74,65,30.27,30.19,24,5,24,0.26
2013-12-8,82.0,77.7,72.0,71.0,69.1,66.0,92,76,64,30.26,30.17,23,6,23,0.00
2013-12-9,80.7,78.4,77.0,71.0,68.5,65.0,80,72,62,30.25,30.16,24,7,24,0.00
2013-12-10,82.3,78.6,76.4,73.0,71.3,69.0,88,79,72,30.21,30.13,18,5,18,0.00
2013-12-11,82.5,78.7,76.8,73.0,71.6,70.0,88,79,71,30.25,30.16,11,4,11,0.00
2013-12-12,79.5,74.2,70.5,72.0,67.0,60.0,94,79,65,30.27,30.18,25,7,28,0.00
2013-12-13,76.4,73.8,71.6,69.0,64.3,59.0,89,73,65,30.25,30.13,30,12,33,0.14
2013-12-14,79.8,77.5,75.3,72.0,70.5,68.0,84,80,75,30.16,30.04,24,7,25,0.00
2013-12-15,85.3,78.1,72.0,74.0,71.5,69.0,92,81,64,30.11,29.98,18,5,20,0.01
2013-12-16,73.9,68.8,63.0,69.0,61.1,58.0,92,77,65,30.22,30.08,14,5,14,0.00
2013-12-17,77.3,69.0,60.7,66.0,60.0,58.0,93,75,59,30.23,30.14,20,6,21,0.00
2013-12-18,75.5,67.8,61.1,60.0,57.8,55.0,91,72,55,30.29,30.19,20,5,24,0.00
2013-12-19,76.3,73.3,64.3,64.0,59.7,56.0,78,63,56,30.29,30.20,19,7,20,0.00
2013-12-20,80.5,77.2,74.8,70.0,67.3,63.0,79,72,64,30.24,30.15,20,5,20,0.00
2013-12-21,79.3,77.7,76.6,73.0,71.2,70.0,86,81,76,30.21,30.11,25,8,25,0.00
2013-12-22,81.0,78.5,77.2,73.0,72.0,70.0,87,81,74,30.22,30.13,27,8,27,0.00
2013-12-23,81.7,77.9,71.8,73.0,71.9,69.0,93,83,74,30.24,30.17,21,6,23,0.00
2013-12-24,87.3,73.3,68.5,72.0,67.6,62.0,98,84,52,30.23,30.12,22,5,23,0.00
2013-12-25,75.5,73.7,71.8,68.0,66.1,65.0,83,78,72,30.22,30.13,29,13,30,0.00
2013-12-26,77.6,75.8,74.0,71.0,69.0,67.0,85,80,75,30.22,30.11,24,10,25,0.00
2013-12-27,79.0,76.7,74.9,71.0,69.7,68.0,86,80,72,30.24,30.13,24,11,24,0.00
2013-12-28,79.0,77.0,75.8,72.0,70.4,68.0,87,81,76,30.23,30.08,25,8,25,0.00
2013-12-29,79.8,77.6,74.7,74.0,72.8,71.0,95,86,81,30.10,29.98,22,6,25,0.00
2013-12-30,81.2,73.8,69.3,73.0,70.5,66.0,98,90,71,30.20,30.03,15,4,15,0.00
2013-12-31,77.8,73.2,68.5,69.0,65.5,63.0,89,77,67,30.28,30.16,27,9,27,0.00
2014-1-1,80.7,77.0,73.9,73.0,70.8,66.0,90,82,73,30.24,30.10,23,7,26,0.02
2014-1-2,82.0,77.8,72.8,72.0,69.8,66.0,92,77,64,30.10,29.93,18,6,20,0.00